Radiation Dose at Monitoring Post of Fukushima Daini Nuclear Power Station
Date,Time,MP-1(microSv/h),MP-2(microSv/h),MP-3(microSv/h),MP-4(microSv/h),MP-5(microSv/h),MP-6(microSv/h),MP-7(microSv/h),Wind Direction,Wind Velocity(m/s),Rain
2015/10/05,00:00,0.489,0.283,0.511,0.465,0.449,0.229,0.199,north-northwest,4.2,No
2015/10/05,00:10,0.493,0.282,0.506,0.469,0.454,0.228,0.199,north-northwest,3.7,No
2015/10/05,00:20,0.488,0.284,0.508,0.464,0.453,0.228,0.199,north-northwest,4.2,No
2015/10/05,00:30,0.494,0.283,0.505,0.469,0.456,0.229,0.199,north,4.4,No
2015/10/05,00:40,0.489,0.282,0.511,0.467,0.452,0.229,0.200,north,4.1,No
2015/10/05,00:50,0.491,0.282,0.505,0.467,0.454,0.229,0.198,north-northwest,3.2,No
2015/10/05,01:00,0.488,0.282,0.510,0.465,0.452,0.230,0.199,north-northwest,3.7,No
2015/10/05,01:10,0.493,0.283,0.506,0.466,0.454,0.230,0.199,north,3.1,No
2015/10/05,01:20,0.488,0.282,0.508,0.467,0.452,0.227,0.198,north-northwest,3.4,No
2015/10/05,01:30,0.493,0.284,0.507,0.467,0.453,0.229,0.198,north-northwest,2.6,No
2015/10/05,01:40,0.489,0.282,0.510,0.467,0.454,0.229,0.199,north-northwest,3.3,No
2015/10/05,01:50,0.493,0.282,0.505,0.464,0.451,0.229,0.199,north-northwest,3.4,No
2015/10/05,02:00,0.487,0.282,0.508,0.469,0.454,0.228,0.198,north-northwest,3.8,No
2015/10/05,02:10,0.492,0.283,0.508,0.464,0.452,0.229,0.200,north-northwest,3.2,No
2015/10/05,02:20,0.489,0.282,0.506,0.468,0.454,0.230,0.199,north-northwest,3.4,No
2015/10/05,02:30,0.493,0.283,0.506,0.466,0.451,0.229,0.199,north-northwest,3.5,No
2015/10/05,02:40,0.489,0.282,0.508,0.469,0.454,0.229,0.200,north-northwest,3.3,No
2015/10/05,02:50,0.492,0.282,0.508,0.464,0.450,0.227,0.199,north-northwest,2.8,No
2015/10/05,03:00,0.490,0.283,0.506,0.469,0.454,0.228,0.200,north-northwest,3.3,No
2015/10/05,03:10,0.490,0.283,0.508,0.464,0.452,0.227,0.199,north-northwest,3.1,No
2015/10/05,03:20,0.490,0.284,0.505,0.468,0.454,0.228,0.199,north-northwest,2.8,No
2015/10/05,03:30,0.490,0.281,0.509,0.465,0.451,0.229,0.200,north-northwest,1.8,No
2015/10/05,03:40,0.491,0.283,0.506,0.467,0.453,0.228,0.199,northwest,1.0,No
2015/10/05,03:50,0.490,0.282,0.509,0.466,0.452,0.229,0.199,north,0.7,No
2015/10/05,04:00,0.491,0.282,0.505,0.467,0.452,0.229,0.198,north,0.8,No
2015/10/05,04:10,0.491,0.282,0.509,0.467,0.453,0.229,0.197,north,0.5,No
2015/10/05,04:20,0.491,0.281,0.505,0.466,0.450,0.229,0.200,northwest,1.4,No
2015/10/05,04:30,0.489,0.282,0.508,0.467,0.455,0.229,0.199,north-northwest,2.8,No
2015/10/05,04:40,0.493,0.281,0.507,0.465,0.449,0.228,0.199,north-northwest,3.2,No
2015/10/05,04:50,0.489,0.283,0.509,0.468,0.454,0.229,0.199,north-northwest,3.1,No
2015/10/05,05:00,0.491,0.281,0.508,0.464,0.452,0.228,0.199,northwest,2.2,No
2015/10/05,05:10,0.488,0.282,0.506,0.468,0.455,0.229,0.199,west-northwest,0.7,No
2015/10/05,05:20,0.493,0.282,0.509,0.466,0.452,0.227,0.199,west,1.0,No
2015/10/05,05:30,0.490,0.281,0.506,0.467,0.451,0.229,0.199,west-southwest,1.4,No
2015/10/05,05:40,0.491,0.284,0.509,0.466,0.453,0.230,0.199,west-northwest,1.8,No
2015/10/05,05:50,0.489,0.282,0.505,0.466,0.450,0.228,0.199,northwest,2.2,No
2015/10/05,06:00,0.491,0.283,0.509,0.466,0.454,0.230,0.199,north-northwest,2.2,No
2015/10/05,06:10,0.490,0.282,0.506,0.468,0.450,0.229,0.198,north-northwest,3.3,No
2015/10/05,06:20,0.490,0.282,0.510,0.467,0.454,0.228,0.199,north-northwest,2.9,No
2015/10/05,06:30,0.491,0.282,0.507,0.464,0.450,0.229,0.199,north-northwest,2.5,No
2015/10/05,06:40,0.489,0.282,0.508,0.468,0.454,0.229,0.199,north-northwest,1.6,No
2015/10/05,06:50,0.493,0.283,0.505,0.463,0.449,0.229,0.200,north-northeast,1.3,No
2015/10/05,07:00,0.490,0.281,0.508,0.468,0.454,0.229,0.198,north,1.1,No
2015/10/05,07:10,0.492,0.284,0.506,0.464,0.449,0.230,0.200,north-northeast,2.2,No
2015/10/05,07:20,0.489,0.282,0.509,0.467,0.454,0.228,0.200,northeast,2.0,No
2015/10/05,07:30,0.492,0.283,0.508,0.465,0.450,0.229,0.198,north-northeast,1.9,No
2015/10/05,07:40,0.489,0.282,0.508,0.467,0.455,0.229,0.199,north-northeast,1.9,No
2015/10/05,07:50,0.491,0.283,0.507,0.465,0.449,0.229,0.199,north,2.3,No
2015/10/05,08:00,0.490,0.281,0.508,0.466,0.455,0.228,0.198,north,1.5,No
2015/10/05,08:10,0.491,0.283,0.508,0.466,0.449,0.230,0.199,north-northeast,1.6,No
2015/10/05,08:20,0.492,0.280,0.509,0.464,0.455,0.228,0.199,north-northwest,1.5,No
2015/10/05,08:30,0.491,0.284,0.506,0.468,0.449,0.228,0.199,north,1.9,No
2015/10/05,08:40,0.492,0.283,0.508,0.463,0.454,0.229,0.199,northeast,1.0,No
2015/10/05,08:50,0.488,0.281,0.504,0.468,0.452,0.228,0.200,northeast,1.4,No
2015/10/05,09:00,0.492,0.283,0.510,0.465,0.448,0.229,0.200,northeast,2.2,No
2015/10/05,09:10,0.485,0.282,0.507,0.459,0.455,0.227,0.199,north-northeast,1.7,No
2015/10/05,09:20,0.491,0.278,0.511,0.464,0.450,0.227,0.197,northeast,2.6,No
2015/10/05,09:30,0.489,0.283,0.504,0.468,0.447,0.228,0.199,northeast,3.3,No
2015/10/05,09:40,0.485,0.284,0.510,0.462,0.454,0.228,0.199,northeast,3.9,No
2015/10/05,09:50,0.488,0.280,0.505,0.461,0.452,0.228,0.198,northeast,3.6,No
2015/10/05,10:00,0.491,0.281,0.510,0.462,0.448,0.230,0.200,northeast,4.2,No
2015/10/05,10:10,0.487,0.284,0.507,0.468,0.454,0.228,0.199,northeast,4.6,No
2015/10/05,10:20,0.486,0.280,0.508,0.466,0.453,0.228,0.198,east-northeast,5.3,No
2015/10/05,10:30,0.493,0.281,0.509,0.462,0.448,0.229,0.199,east-northeast,6.3,No
2015/10/05,10:40,0.489,0.282,0.503,0.461,0.452,0.229,0.200,northeast,4.5,No
2015/10/05,10:50,0.486,0.281,0.510,0.461,0.455,0.228,0.198,northeast,5.1,No
2015/10/05,11:00,0.494,0.281,0.506,0.467,0.451,0.226,0.199,northeast,4.5,No
2015/10/05,11:10,0.490,0.284,0.503,0.469,0.448,0.227,0.200,east-northeast,4.1,No
2015/10/05,11:20,0.486,0.282,0.500,0.466,0.454,0.229,0.198,east-northeast,4.0,No
2015/10/05,11:30,0.490,0.280,0.506,0.463,0.453,0.228,0.199,northeast,3.3,No
2015/10/05,11:40,0.493,0.284,0.508,0.462,0.450,0.228,0.200,northeast,2.5,No
2015/10/05,11:50,0.488,0.283,0.505,0.463,0.450,0.229,0.200,northeast,2.9,No
2015/10/05,12:00,0.491,0.281,0.502,0.462,0.455,0.229,0.198,north-northeast,3.4,No
2015/10/05,12:10,0.497,0.284,0.501,0.468,0.450,0.230,0.200,northeast,3.9,No
2015/10/05,12:20,0.489,0.285,0.506,0.468,0.450,0.227,0.200,northeast,4.6,No
2015/10/05,12:30,0.493,0.281,0.509,0.464,0.449,0.230,0.198,east-northeast,3.4,No
2015/10/05,12:40,0.494,0.285,0.504,0.462,0.456,0.229,0.198,east,2.3,No
2015/10/05,12:50,0.490,0.285,0.507,0.470,0.454,0.229,0.200,east-northeast,2.8,No
2015/10/05,13:00,0.495,0.281,0.509,0.469,0.450,0.230,0.200,east-northeast,3.2,No
2015/10/05,13:10,0.490,0.284,0.506,0.466,0.446,0.228,0.198,east-northeast,3.5,No
2015/10/05,13:20,0.491,0.283,0.503,0.462,0.454,0.228,0.200,east,3.0,No
2015/10/05,13:30,0.496,0.282,0.501,0.463,0.455,0.229,0.200,east,2.2,No
2015/10/05,13:40,0.491,0.283,0.507,0.471,0.451,0.229,0.199,east-northeast,1.6,No
2015/10/05,13:50,0.492,0.284,0.511,0.471,0.448,0.229,0.198,east,2.1,No
2015/10/05,14:00,0.494,0.281,0.509,0.464,0.446,0.228,0.200,east,1.8,No
2015/10/05,14:10,0.487,0.280,0.506,0.470,0.456,0.229,0.201,east,2.1,No
2015/10/05,14:20,0.495,0.284,0.503,0.470,0.456,0.229,0.199,east-southeast,1.4,No
2015/10/05,14:30,0.492,0.283,0.511,0.465,0.451,0.229,0.200,-,CALM,No
2015/10/05,14:40,0.490,0.282,0.511,0.471,0.453,0.230,0.199,northeast,1.9,No
2015/10/05,14:50,0.495,0.286,0.506,0.468,0.457,0.229,0.201,-,CALM,No
2015/10/05,15:00,0.490,0.284,0.514,0.468,0.452,0.228,0.200,east-northeast,1.6,No
2015/10/05,15:10,0.493,0.284,0.510,0.472,0.457,0.230,0.200,east-southeast,0.6,No
2015/10/05,15:20,0.493,0.285,0.510,0.467,0.455,0.231,0.200,east,1.0,No
2015/10/05,15:30,0.490,0.283,0.513,0.472,0.456,0.229,0.199,east-southeast,1.1,No
2015/10/05,15:40,0.495,0.285,0.508,0.468,0.456,0.228,0.200,east-northeast,1.8,No
2015/10/05,15:50,0.490,0.284,0.513,0.470,0.451,0.231,0.199,east-northeast,1.4,No
2015/10/05,16:00,0.495,0.285,0.508,0.470,0.457,0.229,0.201,-,CALM,No
2015/10/05,16:10,0.490,0.283,0.511,0.469,0.451,0.229,0.199,east,1.4,No
2015/10/05,16:20,0.495,0.284,0.510,0.472,0.458,0.229,0.200,-,CALM,No
2015/10/05,16:30,0.490,0.283,0.509,0.468,0.452,0.228,0.199,-,CALM,No
2015/10/05,16:40,0.495,0.284,0.510,0.471,0.455,0.230,0.200,-,CALM,No
2015/10/05,16:50,0.491,0.283,0.509,0.468,0.452,0.228,0.200,-,CALM,No
2015/10/05,17:00,0.493,0.284,0.511,0.470,0.457,0.231,0.201,-,CALM,No
2015/10/05,17:10,0.490,0.284,0.509,0.469,0.452,0.230,0.200,-,CALM,No
2015/10/05,17:20,0.494,0.283,0.512,0.470,0.457,0.229,0.199,west-southwest,0.7,No
2015/10/05,17:30,0.491,0.285,0.508,0.468,0.452,0.229,0.200,-,CALM,No
2015/10/05,17:40,0.493,0.283,0.511,0.468,0.457,0.229,0.199,west-southwest,0.5,No
2015/10/05,17:50,0.490,0.284,0.509,0.471,0.452,0.230,0.200,-,CALM,No
2015/10/05,18:00,0.493,0.284,0.510,0.468,0.454,0.230,0.199,-,CALM,No
2015/10/05,18:10,0.490,0.284,0.512,0.469,0.454,0.229,0.200,-,CALM,No
2015/10/05,18:20,0.494,0.284,0.511,0.466,0.456,0.228,0.200,-,CALM,No
2015/10/05,18:30,0.489,0.283,0.511,0.471,0.453,0.230,0.201,southwest,0.7,No
2015/10/05,18:40,0.494,0.284,0.510,0.466,0.452,0.229,0.199,southwest,1.2,No
2015/10/05,18:50,0.491,0.283,0.513,0.473,0.453,0.230,0.200,southwest,0.7,No
2015/10/05,19:00,0.493,0.283,0.509,0.469,0.452,0.229,0.199,-,CALM,No
2015/10/05,19:10,0.492,0.284,0.513,0.470,0.456,0.230,0.200,southwest,0.8,No
2015/10/05,19:20,0.490,0.283,0.507,0.471,0.453,0.229,0.200,southwest,1.2,No
2015/10/05,19:30,0.494,0.286,0.511,0.470,0.455,0.229,0.200,southwest,0.6,No
2015/10/05,19:40,0.492,0.282,0.510,0.471,0.453,0.229,0.200,south-southwest,1.0,No
2015/10/05,19:50,0.494,0.284,0.508,0.466,0.452,0.230,0.200,southwest,0.7,No
2015/10/05,20:00,0.491,0.284,0.513,0.471,0.454,0.230,0.200,-,CALM,No
2015/10/05,20:10,0.495,0.283,0.508,0.469,0.453,0.229,0.200,-,CALM,No
2015/10/05,20:20,0.490,0.284,0.511,0.469,0.455,0.230,0.200,-,CALM,No
2015/10/05,20:30,0.492,0.283,0.509,0.469,0.452,0.229,0.201,southwest,0.5,No
2015/10/05,20:40,0.492,0.283,0.512,0.468,0.452,0.231,0.200,south-southwest,0.5,No
2015/10/05,20:50,0.491,0.285,0.510,0.472,0.453,0.229,0.200,-,CALM,No
2015/10/05,21:00,0.494,0.282,0.509,0.468,0.453,0.229,0.200,-,CALM,No
2015/10/05,21:10,0.491,0.284,0.512,0.468,0.454,0.231,0.200,-,CALM,No
2015/10/05,21:20,0.496,0.284,0.509,0.469,0.452,0.230,0.200,-,CALM,No
2015/10/05,21:30,0.492,0.283,0.513,0.467,0.451,0.230,0.200,-,CALM,No
2015/10/05,21:40,0.494,0.285,0.510,0.470,0.452,0.230,0.200,-,CALM,No
2015/10/05,21:50,0.491,0.283,0.512,0.468,0.451,0.230,0.199,-,CALM,No
2015/10/05,22:00,0.491,0.283,0.509,0.471,0.455,0.230,0.200,east,0.5,No
2015/10/05,22:10,0.493,0.286,0.510,0.468,0.451,0.230,0.200,-,CALM,No
2015/10/05,22:20,0.491,0.284,0.512,0.469,0.453,0.229,0.200,northeast,1.1,No
2015/10/05,22:30,0.494,0.285,0.508,0.471,0.453,0.230,0.200,northeast,1.1,No
2015/10/05,22:40,0.490,0.283,0.512,0.468,0.452,0.229,0.200,-,CALM,No
2015/10/05,22:50,0.493,0.284,0.508,0.470,0.453,0.230,0.200,north,0.7,No
2015/10/05,23:00,0.489,0.285,0.512,0.468,0.453,0.230,0.200,-,CALM,No
2015/10/05,23:10,0.492,0.283,0.511,0.469,0.452,0.230,0.200,-,CALM,No
2015/10/05,23:20,0.493,0.283,0.509,0.469,0.452,0.230,0.200,-,CALM,No
2015/10/05,23:30,0.490,0.284,0.513,0.468,0.450,0.229,0.200,-,CALM,No
2015/10/05,23:40,0.493,0.283,0.508,0.469,0.453,0.230,0.199,-,CALM,No
2015/10/05,23:50,0.489,0.284,0.513,0.468,0.451,0.230,0.200,northeast,0.7,No
